Regional Weather Roundup
Issued by NWS

Home | Current Version | Previous Version | Graphics & Text | Print | Product List | Glossary Off
Versions: 1 2 3 4 5 6 7 8 9 10 11 12 13 14 15 16 17 18 19 20 21 22 23 24 25 26 27 28 29 30 31 32 33 34 35 36 37 38 39 40 41 42 43 44 45 46 47 48 49 50

000
ASUS43 KTOP 190359
RWRKS

WEATHER ROUNDUP FOR KANSAS
NATIONAL WEATHER SERVICE GOODLAND KS
1000 PM CST THU DEC 18 2014

NOTE:  "FAIR" INDICATES FEW OR NO CLOUDS BELOW 12,000 FEET WITH NO
SIGNIFICANT WEATHER AND/OR OBSTRUCTIONS TO VISIBILITY.

KSZ001>006-013>018-027>032-041>047-190500-
NORTHWEST KANSAS

CITY           SKY/WX    TMP DP  RH WIND       PRES   REMARKS
GOODLAND       CLEAR     24  22  91 W6        30.10F
HAYS           CLOUDY    34  25  69 S6        30.19R
HILL CITY      CLOUDY    33  28  81 CALM      30.17S
RUSSELL        CLOUDY    30  29  96 S7        30.19R
$$

KSZ061>065-074>080-084>089-190500-
SOUTHWEST KANSAS

CITY           SKY/WX    TMP DP  RH WIND       PRES   REMARKS
DODGE CITY     CLOUDY    32  29  88 S7        30.18R
ELKHART          N/A     32  27  82 SW6         N/A
GARDEN CITY    CLOUDY    33  32  96 S9        30.16R
GREAT BEND     CLOUDY    30  25  80 S5        30.22R
LIBERAL        CLOUDY    36  30  80 CALM      30.18S
$$

KSZ066>073-081>083-090>101-190500-
SOUTHEAST KANSAS

CITY           SKY/WX    TMP DP  RH WIND       PRES   REMARKS
CHANUTE        CLOUDY    34  33  96 N3        30.24S FOG
COFFEYVILLE    CLOUDY    36  34  92 N5        30.25R
HUTCHINSON     CLOUDY    31  27  85 CALM      30.24R FOG
MEDICINE LODGE   N/A     34  31  88 SE3       30.22S
NEWTON         CLOUDY    28  25  86 CALM      30.24S
PARSONS        CLOUDY    36  34  92 N3        30.25S
WICHITA INTL   CLOUDY    32  28  85 NE3       30.24R
WICHITA JABRA  CLOUDY    30  28  92 CALM      30.24R
WINFIELD       CLOUDY    34  32  92 N6        30.25R
$$

KSZ007>012-019>026-033>040-048>060-102>105-190500-
NORTHEAST KANSAS

CITY           SKY/WX    TMP DP  RH WIND       PRES   REMARKS
CONCORDIA      CLOUDY    29  26  89 SW5       30.23R
EMPORIA        CLOUDY    31  29  92 E6        30.24R
LAWRENCE       CLOUDY    32  29  88 NE3       30.26S
MANHATTAN      CLOUDY    32  28  85 CALM      30.25S
OLATHE IND     CLOUDY    32  30  92 E3        30.25R FOG
OLATHE EXE     CLOUDY    32  30  92 NE3       30.24R FOG
SALINA         CLOUDY    31  26  82 CALM      30.25R
TOPEKA BILLARD CLOUDY    33  28  81 NE3       30.26S
TOPEKA FORBES  CLOUDY    32  28  85 E5        30.24S
$$


USA.gov is the U.S. government's official web portal to all federal, state and local government web resources and services.